Miscellaneous Local Product
Issued by NWS North Platte, NE

Home | Current Version | Previous Version | Graphics & Text | Print | Product List | Glossary On
Versions: 1 2 3 4 5 6 7 8 9 10 11 12 13 14 15 16 17 18 19 20 21 22 23 24 25 26 27 28 29 30 31 32 33 34 35 36 37 38 39 40 41 42 43 44 45 46 47 48 49 50
000
AXUS43 KLBF 231010
MISLBF


WESTERN AND NORTH CENTRAL NEBRASKA HOURLY WEATHER ROUNDUP
NATIONAL WEATHER SERVICE NORTH PLATTE NE
500 AM CDT WED AUG 23 2017

NOTE: "FAIR" INDICATES FEW OR NO CLOUDS BELOW 12,000 FEET WITH NO
SIGNIFICANT WEATHER AND/OR OBSTRUCTIONS TO VISIBILITY.

NOTE: STATIONS NOT REPORTING VARIABLES SUCH AS SKY/WEATHER OR
PRESSURE ARE PROVIDED BY RAWS AND APRS NETWORKS AND ARE NOT UNDER
NATIONAL WEATHER SERVICE QUALITY CONTROL.

...OBSERVATIONS IN AND NEAR THE EASTERN PANHANDLE OF NEBRASKA...

CITY           SKY/WX    TMP DP  RH WIND       PRES   REMARKS
PINE RIDGE     CLEAR     65  51  60 S20G32    30.08S
GORDON         FAIR      62  49  61 CALM      30.12F
CHADRON        CLEAR     66  53  63 S8        30.07F
ALLIANCE       CLEAR     55  49  80 S9        30.13F
SIDNEY         CLEAR     60  53  77 S14       30.16F
$$

...OBSERVATIONS IN NORTHERN NEBRASKA AND FAR SOUTHERN SOUTH DAKOTA...

CITY           SKY/WX    TMP DP  RH WIND       PRES   REMARKS
WINNER         FAIR      57  53  86 SE7       30.10F
VALENTINE      CLEAR     61  51  70 SW6       30.11F
THEDFORD       CLEAR     62  52  70 S8        30.15F
AINSWORTH      CLEAR     58  54  86 S8        30.12F
O`NEILL        CLEAR     56  53  90 S7        30.15F
ORD            CLEAR     56  51  84 E3        30.14F
BROKEN BOW     CLEAR     59  52  77 S6        30.16F
VALENTINE NWR    N/A     58  53  83 S8          N/A
HALSEY           N/A     61  50  66 S6G13       N/A
BUTTE            N/A     57  51  82 SE6         N/A
CHAMBERS         N/A     56  52  88 CALM        N/A
EWING            N/A     55  52  90 CALM        N/A
$$

...OBSERVATIONS IN SOUTHWEST NEBRASKA AND FAR NORTHEAST COLORADO...

CITY           SKY/WX    TMP DP  RH WIND       PRES   REMARKS
WRAY           FAIR      59  48  67 SE12      30.19F
HOLYOKE        FAIR      55  50  82 SE9       30.19F
IMPERIAL       CLEAR     55  49  80 S8        30.19F
OGALLALA       CLEAR     59  51  75 CALM      30.17F
NORTH PLATTE   CLEAR     60  52  74 S9        30.17F
MCCOOK         CLEAR     58  50  75 S6        30.19S
LEXINGTON      MOCLDY    57  52  82 SE3       30.17F
STAPLETON        N/A     56  52  86 CALM        N/A
GOTHENBURG       N/A     61  49  65 S5          N/A
CALLAWAY         N/A     56  54  92 S7          N/A
$$

...OBSERVATIONS IN CENTRAL LINCOLN COUNTY AREA...

CITY           SKY/WX    TMP DP  RH WIND       PRES   REMARKS
N.P. AIRPORT   CLEAR     60  52  74 S9        30.17F
N.P. DOWNTOWN    N/A     60  53  77 CALM        N/A
N.P. SOUTHEAST   N/A     59  52  76 S6          N/A
N.P. HILLCREST   N/A     59  53  79 S7G14       N/A
$$

...SOME OBSERVATIONS FROM AROUND THE REGION...

CITY           SKY/WX    TMP DP  RH WIND       PRES   REMARKS
DENVER         CLOUDY    63  48  58 S9        30.18F
LIMON          CLOUDY    53  53 100 S8        30.25F
ASPEN          CLOUDY    52  42  69 SW6       30.41F
LARAMIE        CLOUDY    50  38  63 SE8       30.32F
CASPER         CLEAR     48  38  68 CALM      30.18F
CHEYENNE       CLOUDY    56  45  66 CALM      30.23S
SCOTTSBLUFF    CLEAR     58  53  84 E9        30.12F
GRAND ISLAND   CLEAR     57  54  89 S7        30.18F
OMAHA          CLEAR     57  53  86 CALM      30.16F
SIOUX FALLS    CLEAR     52  52 100 CALM      30.14F
PIERRE         CLEAR     59  51  75 E12       30.07F
RAPID CITY     CLEAR     57  48  72 CALM      30.06F
BISMARCK       CLEAR     50  47  89 CALM      30.10F
KANSAS CITY    CLEAR     58  53  84 NE5       30.15F
HILL CITY      CLEAR     54  50  86 CALM      30.20S
WICHITA        CLEAR     62  55  77 NE9       30.16S
DODGE CITY       N/A    N/A N/A N/A MISG      30.20S
OKLAHOMA CITY  CLOUDY    72  70  93 NE8       30.08S
DALLAS         MOCLDY    78  71  79 N12       30.02R
AMARILLO       CLOUDY    66  64  93 NW8       30.19S
$$




USA.gov is the U.S. government's official web portal to all federal, state and local government web resources and services.